ENY4212 MYNN-KDCA

Flight info

Callsign ENY4212
Flight time 2h 18m
Altitude 33000
Route INGRA G437 ELBOW DCT PELCN Y309 FLRDA DCT WAALT DCT ILM DCT TYI DCT WAVES CAPSS4
Aircraft E75L/M-SDE3GILORVW/S

Departure

Time 2026-05-05 02:16
Airport Lynden Pindling International Airport (MYNN)

Arrival

Time 2026-05-05 04:35
Airport Ronald Reagan Washington National Airport (KDCA)
Time Latitude Longitude Altitude Speed Heading
2026-05-05 01:53 25.05044 -77.46725 14 ft 0 kts 69°
2026-05-05 02:03 25.05038 -77.46740 17 ft 4 kts 62°
2026-05-05 02:03 25.05023 -77.46765 15 ft 4 kts 49°
2026-05-05 02:03 25.05004 -77.46786 17 ft 4 kts 48°
2026-05-05 02:03 25.04993 -77.46806 17 ft 3 kts 68°
2026-05-05 02:04 25.04981 -77.46832 15 ft 4 kts 56°
2026-05-05 02:04 25.04964 -77.46852 17 ft 4 kts 32°
2026-05-05 02:04 25.04947 -77.46857 15 ft 4 kts 308°
2026-05-05 02:04 25.04946 -77.46854 15 ft 0 kts 246°
2026-05-05 02:06 25.04946 -77.46856 15 ft 1 kts 246°
2026-05-05 02:07 25.04940 -77.46870 23 ft 3 kts 247°
2026-05-05 02:07 25.04929 -77.46899 15 ft 5 kts 246°
2026-05-05 02:07 25.04910 -77.46938 15 ft 6 kts 229°
2026-05-05 02:07 25.04872 -77.46951 15 ft 6 kts 169°
2026-05-05 02:08 25.04836 -77.46926 16 ft 7 kts 135°
2026-05-05 02:08 25.04815 -77.46903 17 ft 9 kts 135°
2026-05-05 02:08 25.04764 -77.46846 16 ft 15 kts 135°
2026-05-05 02:08 25.04676 -77.46751 18 ft 20 kts 136°
2026-05-05 02:09 25.04563 -77.46627 17 ft 25 kts 134°
2026-05-05 02:09 25.04521 -77.46579 15 ft 27 kts 134°
2026-05-05 02:09 25.04484 -77.46538 15 ft 28 kts 134°
2026-05-05 02:09 25.04335 -77.46372 15 ft 31 kts 135°
2026-05-05 02:10 25.04184 -77.46205 15 ft 30 kts 134°
2026-05-05 02:10 25.04049 -77.46055 15 ft 26 kts 134°
2026-05-05 02:10 25.03932 -77.45925 16 ft 22 kts 135°
2026-05-05 02:10 25.03833 -77.45815 16 ft 19 kts 135°
2026-05-05 02:11 25.03753 -77.45726 15 ft 17 kts 134°
2026-05-05 02:11 25.03671 -77.45634 16 ft 17 kts 135°
2026-05-05 02:11 25.03584 -77.45537 17 ft 19 kts 135°
2026-05-05 02:11 25.03489 -77.45433 14 ft 19 kts 135°
2026-05-05 02:12 25.03391 -77.45326 14 ft 19 kts 135°
2026-05-05 02:12 25.03237 -77.45180 15 ft 12 kts 163°
2026-05-05 02:12 25.03188 -77.45183 16 ft 0 kts 190°
2026-05-05 02:14 25.03182 -77.45184 16 ft 5 kts 190°
2026-05-05 02:14 25.03120 -77.45197 18 ft 10 kts 190°
2026-05-05 02:14 25.03079 -77.45234 18 ft 5 kts 282°
2026-05-05 02:14 25.03083 -77.45239 18 ft 0 kts 315°
2026-05-05 02:15 25.03187 -77.45353 19 ft 57 kts 315°
2026-05-05 02:16 25.03655 -77.45873 18 ft 131 kts 315°
2026-05-05 02:16 25.04444 -77.46752 136 ft 181 kts 314°
2026-05-05 02:16 25.05331 -77.47745 958 ft 183 kts 315°
2026-05-05 02:16 25.05808 -77.48286 1367 ft 187 kts 314°
2026-05-05 02:17 25.06662 -77.49252 2059 ft 194 kts 315°
2026-05-05 02:17 25.06996 -77.49616 2301 ft 199 kts 315°
2026-05-05 02:17 25.07510 -77.50167 2626 ft 206 kts 315°
2026-05-05 02:17 25.08595 -77.51306 3236 ft 231 kts 315°
2026-05-05 02:18 25.09844 -77.52615 3765 ft 258 kts 315°
2026-05-05 02:18 25.11171 -77.53987 4702 ft 265 kts 315°
2026-05-05 02:18 25.12554 -77.55371 5655 ft 271 kts 315°
2026-05-05 02:18 25.13960 -77.56766 6681 ft 273 kts 315°
2026-05-05 02:19 25.15396 -77.58151 7598 ft 275 kts 315°
2026-05-05 02:19 25.16851 -77.59545 8468 ft 278 kts 315°
2026-05-05 02:19 25.18288 -77.60912 9280 ft 281 kts 315°
2026-05-05 02:19 25.19773 -77.62321 10029 ft 285 kts 315°
2026-05-05 02:20 25.21498 -77.63443 10681 ft 297 kts 339°
2026-05-05 02:20 25.23590 -77.63572 11381 ft 310 kts
2026-05-05 02:20 25.25494 -77.62678 12030 ft 322 kts 33°
2026-05-05 02:20 25.27003 -77.60843 12726 ft 331 kts 56°
2026-05-05 02:21 25.28209 -77.58654 13402 ft 337 kts 57°
2026-05-05 02:21 25.29424 -77.56352 13693 ft 358 kts 58°
2026-05-05 02:21 25.30667 -77.53952 14026 ft 375 kts 59°
2026-05-05 02:21 25.31988 -77.51376 14336 ft 392 kts 59°
2026-05-05 02:22 25.33336 -77.48716 14883 ft 400 kts 59°
2026-05-05 02:22 25.34682 -77.46053 15533 ft 405 kts 59°
2026-05-05 02:22 25.36049 -77.43334 16205 ft 408 kts 59°
2026-05-05 02:22 25.37431 -77.40576 16842 ft 412 kts 59°
2026-05-05 02:23 25.38827 -77.37786 17453 ft 416 kts 58°
2026-05-05 02:23 25.40235 -77.34967 18052 ft 420 kts 58°
2026-05-05 02:23 25.41654 -77.32123 18570 ft 425 kts 58°
2026-05-05 02:23 25.43035 -77.29349 19043 ft 429 kts 58°
2026-05-05 02:24 25.44427 -77.26550 19516 ft 433 kts 58°
2026-05-05 02:24 25.45392 -77.24608 19844 ft 436 kts 58°
2026-05-05 02:24 25.46884 -77.21709 20335 ft 438 kts 53°
2026-05-05 02:24 25.48971 -77.19307 20795 ft 431 kts 29°
2026-05-05 02:25 25.51590 -77.17759 21273 ft 428 kts 21°
2026-05-05 02:25 25.55140 -77.15806 21876 ft 431 kts 19°
2026-05-05 02:25 25.56985 -77.14862 22173 ft 434 kts 19°
2026-05-05 02:25 25.59747 -77.13466 22643 ft 437 kts 18°
2026-05-05 02:26 25.62541 -77.12105 23116 ft 441 kts 17°
2026-05-05 02:26 25.65284 -77.10504 23547 ft 452 kts 27°
2026-05-05 02:26 25.67868 -77.08480 23948 ft 457 kts 31°
2026-05-05 02:26 25.70407 -77.06398 24338 ft 461 kts 31°
2026-05-05 02:27 25.72979 -77.04279 24722 ft 463 kts 31°
2026-05-05 02:27 25.75608 -77.02198 25091 ft 462 kts 26°
2026-05-05 02:27 25.78411 -77.00464 25446 ft 460 kts 20°
2026-05-05 02:27 25.81347 -76.99089 25811 ft 457 kts 14°
2026-05-05 02:28 25.84330 -76.97829 26189 ft 459 kts 14°
2026-05-05 02:28 25.87318 -76.96557 26561 ft 461 kts 14°
2026-05-05 02:28 25.90257 -76.95308 26909 ft 464 kts 14°
2026-05-05 02:28 25.93263 -76.94030 27271 ft 466 kts 14°
2026-05-05 02:29 25.96280 -76.92746 27616 ft 468 kts 14°
2026-05-05 02:29 25.99271 -76.91474 27947 ft 471 kts 14°
2026-05-05 02:29 26.02347 -76.90165 28274 ft 473 kts 14°
2026-05-05 02:29 26.05447 -76.89010 28639 ft 464 kts
2026-05-05 02:30 26.08439 -76.88879 29025 ft 442 kts 343°
2026-05-05 02:30 26.11386 -76.89612 29527 ft 432 kts 338°
2026-05-05 02:30 26.14241 -76.90399 29933 ft 431 kts 338°
2026-05-05 02:30 26.17117 -76.91295 30281 ft 428 kts 335°
2026-05-05 02:31 26.19964 -76.92262 30559 ft 428 kts 334°
2026-05-05 02:31 26.22774 -76.93255 30875 ft 428 kts 334°
2026-05-05 02:31 26.25498 -76.94220 31188 ft 427 kts 334°
2026-05-05 02:31 26.28284 -76.95207 31574 ft 426 kts 334°
2026-05-05 02:32 26.31109 -76.96215 31896 ft 426 kts 333°
2026-05-05 02:32 26.33928 -76.97225 32118 ft 428 kts 333°
2026-05-05 02:32 26.36745 -76.98234 32378 ft 423 kts 333°
2026-05-05 02:32 26.39535 -76.99238 32839 ft 419 kts 333°
2026-05-05 02:33 26.42230 -77.00211 33033 ft 422 kts 333°
2026-05-05 02:33 26.47850 -77.02246 33066 ft 425 kts 333°
2026-05-05 02:34 26.53370 -77.04244 33056 ft 426 kts 333°
2026-05-05 02:34 26.58890 -77.06243 33080 ft 427 kts 333°
2026-05-05 02:35 26.64461 -77.08264 33082 ft 427 kts 333°
2026-05-05 02:35 26.70091 -77.10309 33065 ft 427 kts 333°
2026-05-05 02:36 26.75682 -77.12341 33058 ft 426 kts 333°
2026-05-05 02:36 26.81282 -77.14378 33056 ft 426 kts 333°
2026-05-05 02:37 26.86875 -77.16415 33056 ft 426 kts 333°
2026-05-05 02:37 26.92477 -77.18458 33067 ft 426 kts 333°
2026-05-05 02:38 26.98080 -77.20502 33060 ft 427 kts 333°
2026-05-05 02:38 27.03646 -77.22536 33063 ft 427 kts 333°
2026-05-05 02:39 27.09243 -77.24582 33071 ft 424 kts 333°
2026-05-05 02:39 27.14772 -77.26607 33071 ft 424 kts 333°
2026-05-05 02:40 27.20361 -77.28655 33068 ft 424 kts 333°
2026-05-05 02:40 27.25912 -77.30692 33072 ft 424 kts 333°
2026-05-05 02:41 27.31505 -77.32746 33073 ft 424 kts 333°
2026-05-05 02:41 27.37082 -77.34797 33073 ft 424 kts 333°
2026-05-05 02:42 27.42691 -77.36861 33077 ft 424 kts 333°
2026-05-05 02:42 27.48170 -77.38879 33076 ft 424 kts 333°
2026-05-05 02:43 27.53781 -77.40949 33078 ft 424 kts 333°
2026-05-05 02:43 27.59208 -77.42952 33076 ft 424 kts 333°
2026-05-05 02:44 27.64808 -77.45022 33084 ft 424 kts 333°
2026-05-05 02:44 27.70416 -77.47097 33080 ft 424 kts 333°
2026-05-05 02:45 27.75904 -77.49130 33084 ft 424 kts 333°
2026-05-05 02:45 27.81459 -77.51190 33075 ft 425 kts 334°
2026-05-05 02:46 27.87023 -77.53254 33087 ft 424 kts 334°
2026-05-05 02:46 27.92500 -77.55289 33088 ft 424 kts 334°
2026-05-05 02:47 27.98086 -77.57366 33089 ft 424 kts 334°
2026-05-05 02:47 28.03609 -77.59423 33097 ft 423 kts 334°
2026-05-05 02:48 28.09095 -77.61466 33091 ft 420 kts 334°
2026-05-05 02:48 28.14561 -77.63506 33106 ft 419 kts 334°
2026-05-05 02:49 28.20042 -77.65555 33091 ft 419 kts 334°
2026-05-05 02:49 28.25540 -77.67611 33101 ft 419 kts 334°
2026-05-05 02:50 28.31104 -77.69694 33101 ft 419 kts 334°
2026-05-05 02:50 28.36595 -77.71752 33104 ft 419 kts 334°
2026-05-05 02:51 28.42126 -77.73826 33081 ft 420 kts 334°
2026-05-05 02:51 28.47655 -77.75902 33107 ft 419 kts 334°
2026-05-05 02:52 28.53158 -77.77971 33103 ft 419 kts 334°
2026-05-05 02:52 28.58688 -77.80054 33109 ft 419 kts 334°
2026-05-05 02:53 28.64228 -77.82141 33113 ft 419 kts 334°
2026-05-05 02:53 28.69745 -77.84222 33112 ft 419 kts 334°
2026-05-05 02:54 28.75256 -77.86304 33108 ft 419 kts 334°
2026-05-05 02:54 28.80760 -77.88382 33116 ft 419 kts 334°
2026-05-05 02:55 28.86295 -77.90478 33121 ft 419 kts 334°
2026-05-05 02:55 28.91837 -77.92575 33113 ft 419 kts 334°
2026-05-05 02:56 28.97376 -77.94678 33121 ft 419 kts 334°
2026-05-05 02:56 29.02899 -77.96773 33112 ft 415 kts 334°
2026-05-05 02:57 29.08392 -77.98863 33120 ft 416 kts 333°
2026-05-05 02:57 29.13860 -78.00942 33118 ft 416 kts 333°
2026-05-05 02:58 29.19366 -78.03042 33120 ft 416 kts 333°
2026-05-05 02:58 29.24859 -78.05138 33120 ft 416 kts 333°
2026-05-05 02:59 29.30356 -78.07236 33116 ft 417 kts 333°
2026-05-05 02:59 29.35857 -78.09340 33125 ft 416 kts 333°
2026-05-05 03:00 29.41313 -78.11430 33128 ft 415 kts 333°
2026-05-05 03:00 29.46814 -78.13538 33127 ft 416 kts 333°
2026-05-05 03:01 29.52309 -78.15644 33122 ft 416 kts 333°
2026-05-05 03:01 29.57799 -78.17753 33128 ft 416 kts 333°
2026-05-05 03:02 29.63279 -78.19856 33124 ft 416 kts 333°
2026-05-05 03:02 29.68724 -78.21954 33135 ft 416 kts 333°
2026-05-05 03:03 29.74212 -78.24055 33136 ft 416 kts 333°
2026-05-05 03:03 29.79692 -78.26160 33132 ft 416 kts 333°
2026-05-05 03:04 29.85128 -78.28271 33126 ft 415 kts 332°
2026-05-05 03:04 29.90585 -78.30429 33122 ft 415 kts 332°
2026-05-05 03:05 29.95929 -78.32520 33135 ft 416 kts 332°
2026-05-05 03:05 30.01394 -78.34646 33134 ft 416 kts 333°
2026-05-05 03:06 30.06847 -78.36761 33132 ft 416 kts 333°
2026-05-05 03:06 30.12336 -78.38864 33134 ft 419 kts 336°
2026-05-05 03:06 30.15216 -78.39429 33140 ft 434 kts 349°
2026-05-05 03:07 30.18306 -78.39295 33152 ft 440 kts 354°
2026-05-05 03:07 30.24401 -78.38757 33151 ft 444 kts 356°
2026-05-05 03:08 30.30469 -78.38128 33136 ft 443 kts 356°
2026-05-05 03:08 30.36499 -78.37489 33136 ft 443 kts 356°
2026-05-05 03:09 30.42642 -78.36830 33134 ft 443 kts 356°
2026-05-05 03:09 30.48771 -78.36170 33131 ft 444 kts 356°
2026-05-05 03:10 30.53871 -78.35618 33131 ft 444 kts 356°
2026-05-05 03:10 30.61026 -78.34843 33134 ft 444 kts 356°
2026-05-05 03:11 30.67183 -78.34176 33136 ft 444 kts 356°
2026-05-05 03:11 30.72305 -78.33619 33181 ft 445 kts 356°
2026-05-05 03:12 30.78385 -78.32959 33137 ft 445 kts 356°
2026-05-05 03:12 30.84461 -78.32297 33142 ft 445 kts 356°
2026-05-05 03:13 30.90617 -78.31626 33139 ft 445 kts 356°
2026-05-05 03:13 30.96777 -78.30953 33139 ft 445 kts 356°
2026-05-05 03:14 31.02784 -78.30296 33141 ft 444 kts 357°
2026-05-05 03:14 31.08880 -78.29629 33141 ft 445 kts 357°
2026-05-05 03:15 31.14963 -78.28962 33131 ft 445 kts 357°
2026-05-05 03:15 31.21119 -78.28287 33140 ft 445 kts 357°
2026-05-05 03:16 31.27256 -78.27610 33153 ft 445 kts 358°
2026-05-05 03:16 31.33342 -78.26913 33135 ft 442 kts 358°
2026-05-05 03:17 31.39424 -78.26229 33139 ft 443 kts 358°
2026-05-05 03:17 31.45406 -78.25565 33138 ft 443 kts 358°
2026-05-05 03:18 31.51539 -78.24886 33142 ft 443 kts 358°
2026-05-05 03:18 31.57626 -78.24211 33152 ft 441 kts 358°
2026-05-05 03:19 31.66808 -78.23196 33143 ft 441 kts 358°
2026-05-05 03:19 31.72926 -78.22518 33139 ft 441 kts 358°
2026-05-05 03:20 31.79047 -78.21840 33145 ft 441 kts 358°
2026-05-05 03:20 31.85163 -78.21162 33136 ft 442 kts 359°
2026-05-05 03:21 31.91277 -78.20481 33142 ft 441 kts 359°
2026-05-05 03:21 31.97374 -78.19803 33138 ft 441 kts 359°
2026-05-05 03:22 32.03486 -78.19121 33140 ft 441 kts 359°
2026-05-05 03:22 32.09560 -78.18443 33126 ft 440 kts 360°
2026-05-05 03:23 32.15659 -78.17761 33140 ft 440 kts 360°
2026-05-05 03:23 32.21758 -78.17079 33139 ft 440 kts 360°
2026-05-05 03:24 32.27864 -78.16395 33139 ft 440 kts 360°
2026-05-05 03:24 32.33924 -78.15715 33151 ft 440 kts
2026-05-05 03:25 32.39943 -78.15038 33138 ft 439 kts
2026-05-05 03:25 32.45979 -78.14359 33139 ft 439 kts
2026-05-05 03:26 32.52056 -78.13675 33135 ft 439 kts
2026-05-05 03:26 32.58076 -78.12996 33137 ft 439 kts
2026-05-05 03:27 32.64086 -78.12316 33141 ft 438 kts
2026-05-05 03:27 32.70146 -78.11631 33131 ft 438 kts
2026-05-05 03:28 32.76219 -78.10943 33131 ft 438 kts
2026-05-05 03:28 32.82272 -78.10256 33131 ft 438 kts
2026-05-05 03:29 32.88292 -78.09572 33135 ft 438 kts
2026-05-05 03:29 32.94345 -78.08883 33128 ft 438 kts
2026-05-05 03:30 33.00417 -78.08192 33130 ft 438 kts
2026-05-05 03:30 33.06490 -78.07499 33131 ft 438 kts
2026-05-05 03:31 33.12562 -78.06805 33119 ft 439 kts
2026-05-05 03:31 33.18632 -78.06111 33135 ft 438 kts
2026-05-05 03:32 33.24685 -78.05417 33126 ft 438 kts
2026-05-05 03:32 33.30727 -78.04725 33128 ft 438 kts
2026-05-05 03:33 33.36742 -78.04033 33129 ft 438 kts
2026-05-05 03:33 33.42765 -78.03340 33125 ft 438 kts
2026-05-05 03:34 33.48812 -78.02644 33127 ft 438 kts
2026-05-05 03:34 33.54873 -78.01944 33127 ft 438 kts
2026-05-05 03:35 33.60865 -78.01252 33123 ft 438 kts
2026-05-05 03:35 33.66897 -78.00553 33123 ft 435 kts 360°
2026-05-05 03:36 33.72923 -77.99855 33123 ft 436 kts 360°
2026-05-05 03:36 33.78931 -77.99159 33120 ft 436 kts
2026-05-05 03:37 33.84928 -77.98462 33120 ft 436 kts
2026-05-05 03:37 33.90853 -77.97726 33108 ft 435 kts
2026-05-05 03:38 33.96827 -77.96889 33122 ft 434 kts
2026-05-05 03:38 34.02824 -77.96057 33118 ft 435 kts
2026-05-05 03:39 34.08837 -77.95226 33120 ft 435 kts
2026-05-05 03:39 34.14823 -77.94399 33131 ft 435 kts
2026-05-05 03:40 34.20801 -77.93571 33127 ft 433 kts
2026-05-05 03:40 34.26781 -77.92743 33133 ft 433 kts
2026-05-05 03:41 34.32736 -77.91917 33127 ft 433 kts
2026-05-05 03:41 34.38730 -77.91085 33130 ft 433 kts
2026-05-05 03:42 34.44675 -77.90258 33125 ft 432 kts
2026-05-05 03:42 34.50641 -77.89427 33114 ft 432 kts
2026-05-05 03:43 34.56576 -77.88599 33118 ft 432 kts
2026-05-05 03:43 34.62561 -77.87763 33118 ft 432 kts
2026-05-05 03:44 34.65540 -77.87345 33377 ft 430 kts
2026-05-05 03:44 34.68516 -77.86929 33593 ft 430 kts
2026-05-05 03:44 34.71363 -77.86530 33793 ft 430 kts
2026-05-05 03:44 34.74327 -77.86116 34011 ft 430 kts
2026-05-05 03:45 34.77167 -77.85717 34212 ft 429 kts
2026-05-05 03:45 34.80146 -77.85299 34406 ft 429 kts
2026-05-05 03:45 34.83116 -77.84881 34598 ft 429 kts
2026-05-05 03:45 34.86090 -77.84463 34798 ft 429 kts
2026-05-05 03:46 34.89055 -77.84046 35005 ft 429 kts
2026-05-05 03:46 34.91978 -77.83634 35104 ft 428 kts
2026-05-05 03:46 34.97899 -77.82800 35127 ft 428 kts
2026-05-05 03:47 35.03691 -77.81983 35130 ft 427 kts
2026-05-05 03:47 35.09516 -77.81160 35121 ft 427 kts
2026-05-05 03:48 35.15365 -77.80332 35140 ft 426 kts
2026-05-05 03:48 35.21241 -77.79499 35116 ft 426 kts
2026-05-05 03:49 35.27118 -77.78665 35099 ft 425 kts
2026-05-05 03:49 35.33001 -77.77829 35101 ft 426 kts
2026-05-05 03:50 35.38851 -77.76996 35099 ft 426 kts
2026-05-05 03:50 35.44744 -77.76156 35094 ft 426 kts
2026-05-05 03:51 35.50626 -77.75316 35092 ft 426 kts
2026-05-05 03:51 35.56513 -77.74474 35085 ft 426 kts
2026-05-05 03:52 35.62396 -77.73632 35102 ft 426 kts
2026-05-05 03:52 35.68276 -77.72789 35072 ft 424 kts
2026-05-05 03:53 35.74113 -77.71951 35072 ft 424 kts
2026-05-05 03:53 35.79980 -77.71107 35068 ft 424 kts
2026-05-05 03:54 35.85850 -77.70261 35062 ft 424 kts
2026-05-05 03:54 35.91717 -77.69414 35075 ft 424 kts
2026-05-05 03:55 35.97497 -77.68580 35082 ft 423 kts
2026-05-05 03:55 36.03360 -77.67731 35073 ft 424 kts
2026-05-05 03:56 36.09182 -77.66887 35071 ft 424 kts
2026-05-05 03:56 36.14983 -77.66047 34598 ft 430 kts
2026-05-05 03:57 36.17957 -77.65615 33968 ft 430 kts
2026-05-05 03:57 36.20922 -77.65183 33291 ft 428 kts
2026-05-05 03:57 36.23873 -77.64752 32644 ft 426 kts
2026-05-05 03:57 36.25823 -77.64468 32227 ft 426 kts
2026-05-05 03:58 36.28766 -77.64039 31611 ft 425 kts
2026-05-05 03:58 36.31705 -77.63611 31014 ft 426 kts
2026-05-05 03:58 36.34657 -77.63181 30429 ft 428 kts
2026-05-05 03:58 36.37622 -77.62749 29814 ft 430 kts
2026-05-05 03:59 36.40606 -77.62313 29229 ft 431 kts
2026-05-05 03:59 36.43574 -77.61889 29158 ft 429 kts
2026-05-05 03:59 36.49505 -77.61034 29023 ft 433 kts
2026-05-05 04:00 36.55500 -77.60143 29010 ft 434 kts
2026-05-05 04:00 36.61481 -77.59257 29089 ft 438 kts
2026-05-05 04:01 36.67486 -77.58370 29104 ft 437 kts
2026-05-05 04:01 36.73503 -77.57482 29070 ft 437 kts
2026-05-05 04:02 36.79539 -77.56590 29055 ft 437 kts
2026-05-05 04:02 36.85425 -77.55721 29038 ft 439 kts
2026-05-05 04:03 36.91489 -77.54823 29028 ft 439 kts
2026-05-05 04:03 36.97523 -77.53928 29018 ft 439 kts
2026-05-05 04:04 37.03593 -77.53026 29028 ft 439 kts
2026-05-05 04:04 37.09604 -77.52131 29041 ft 436 kts
2026-05-05 04:05 37.15644 -77.51232 29038 ft 436 kts
2026-05-05 04:05 37.21564 -77.50347 29026 ft 437 kts
2026-05-05 04:06 37.27575 -77.49449 29011 ft 437 kts
2026-05-05 04:06 37.33584 -77.48548 29014 ft 433 kts
2026-05-05 04:07 37.39522 -77.47663 28954 ft 436 kts
2026-05-05 04:07 37.42563 -77.47208 28238 ft 437 kts
2026-05-05 04:07 37.45561 -77.46755 27628 ft 435 kts
2026-05-05 04:08 37.48594 -77.46297 27030 ft 431 kts
2026-05-05 04:08 37.51532 -77.45853 26421 ft 427 kts
2026-05-05 04:08 37.54491 -77.45407 25820 ft 424 kts
2026-05-05 04:08 37.57372 -77.44973 25296 ft 420 kts
2026-05-05 04:09 37.60251 -77.44304 24732 ft 421 kts
2026-05-05 04:09 37.63078 -77.43432 24153 ft 420 kts
2026-05-05 04:09 37.65909 -77.42558 23595 ft 417 kts
2026-05-05 04:09 37.68715 -77.41691 23035 ft 413 kts
2026-05-05 04:10 37.71497 -77.40834 22503 ft 409 kts
2026-05-05 04:10 37.74258 -77.39983 21966 ft 406 kts
2026-05-05 04:10 37.76991 -77.39140 21428 ft 403 kts
2026-05-05 04:10 37.79708 -77.38302 20895 ft 400 kts
2026-05-05 04:11 37.82360 -77.37481 20375 ft 396 kts
2026-05-05 04:11 37.85027 -77.36654 19851 ft 393 kts
2026-05-05 04:11 37.87678 -77.35834 19314 ft 388 kts
2026-05-05 04:11 37.90271 -77.35028 18806 ft 380 kts
2026-05-05 04:12 37.92815 -77.34246 18297 ft 373 kts
2026-05-05 04:12 37.95327 -77.33473 17794 ft 367 kts
2026-05-05 04:12 37.97792 -77.32716 17315 ft 362 kts
2026-05-05 04:12 38.00212 -77.31970 16826 ft 359 kts
2026-05-05 04:13 38.02632 -77.31223 16351 ft 356 kts
2026-05-05 04:13 38.05029 -77.30484 15883 ft 352 kts
2026-05-05 04:13 38.07400 -77.29754 15415 ft 349 kts
2026-05-05 04:13 38.09746 -77.29020 14952 ft 345 kts
2026-05-05 04:14 38.12069 -77.28288 14496 ft 341 kts
2026-05-05 04:14 38.14358 -77.27569 14037 ft 335 kts
2026-05-05 04:14 38.16593 -77.26865 13576 ft 327 kts
2026-05-05 04:14 38.18768 -77.26180 13177 ft 317 kts
2026-05-05 04:15 38.20876 -77.25508 12871 ft 307 kts
2026-05-05 04:15 38.22900 -77.24740 12567 ft 300 kts 11°
2026-05-05 04:15 38.24857 -77.23987 12343 ft 292 kts 11°
2026-05-05 04:15 38.26798 -77.23248 12145 ft 291 kts 11°
2026-05-05 04:16 38.28745 -77.22506 11902 ft 292 kts 11°
2026-05-05 04:16 38.30687 -77.21768 11675 ft 290 kts 11°
2026-05-05 04:16 38.32624 -77.21033 11462 ft 290 kts 11°
2026-05-05 04:16 38.34533 -77.20310 11225 ft 290 kts 11°
2026-05-05 04:17 38.36487 -77.19568 11048 ft 288 kts 11°
2026-05-05 04:17 38.38382 -77.18845 10913 ft 288 kts 12°
2026-05-05 04:17 38.40301 -77.18102 10762 ft 288 kts 12°
2026-05-05 04:17 38.41499 -77.17641 10718 ft 287 kts 12°
2026-05-05 04:18 38.43391 -77.16910 10639 ft 289 kts 11°
2026-05-05 04:18 38.45315 -77.16169 10548 ft 289 kts 11°
2026-05-05 04:18 38.47244 -77.15423 10457 ft 289 kts 11°
2026-05-05 04:18 38.49165 -77.14680 10452 ft 289 kts 11°
2026-05-05 04:19 38.51097 -77.13936 10324 ft 290 kts 12°
2026-05-05 04:19 38.52970 -77.13208 10234 ft 289 kts 12°
2026-05-05 04:19 38.54898 -77.12462 10137 ft 288 kts 12°
2026-05-05 04:19 38.56819 -77.11718 10007 ft 289 kts 12°
2026-05-05 04:20 38.58718 -77.10983 9871 ft 288 kts 12°
2026-05-05 04:20 38.60661 -77.10235 9735 ft 287 kts 12°
2026-05-05 04:20 38.62509 -77.09525 9540 ft 288 kts 12°
2026-05-05 04:20 38.64381 -77.08802 9375 ft 288 kts 12°
2026-05-05 04:21 38.66219 -77.08093 9190 ft 288 kts 11°
2026-05-05 04:21 38.68026 -77.07397 8920 ft 290 kts 12°
2026-05-05 04:21 38.69943 -77.06742 8604 ft 285 kts
2026-05-05 04:21 38.71850 -77.06580 8339 ft 280 kts 356°
2026-05-05 04:22 38.73745 -77.06497 7947 ft 283 kts 358°
2026-05-05 04:22 38.75748 -77.06396 7628 ft 277 kts 351°
2026-05-05 04:22 38.77488 -77.07061 7239 ft 267 kts 326°
2026-05-05 04:22 38.79049 -77.08318 6885 ft 264 kts 322°
2026-05-05 04:23 38.80560 -77.09584 6509 ft 263 kts 323°
2026-05-05 04:23 38.82093 -77.10843 6217 ft 260 kts 323°
2026-05-05 04:23 38.83561 -77.12049 6017 ft 257 kts 321°
2026-05-05 04:23 38.84894 -77.13474 5906 ft 255 kts 311°
2026-05-05 04:24 38.86116 -77.15135 5700 ft 254 kts 309°
2026-05-05 04:24 38.87324 -77.16782 5483 ft 258 kts 309°
2026-05-05 04:24 38.88537 -77.18437 5098 ft 259 kts 309°
2026-05-05 04:25 38.90928 -77.21719 5006 ft 252 kts 309°
2026-05-05 04:25 38.92122 -77.23371 4981 ft 255 kts 308°
2026-05-05 04:25 38.93321 -77.25014 5013 ft 245 kts 309°
2026-05-05 04:25 38.94445 -77.26544 4983 ft 230 kts 308°
2026-05-05 04:26 38.95511 -77.27984 4975 ft 217 kts 309°
2026-05-05 04:26 38.96542 -77.29332 4925 ft 207 kts 309°
2026-05-05 04:26 38.97541 -77.30587 4948 ft 194 kts 310°
2026-05-05 04:26 38.98616 -77.31620 4763 ft 203 kts 333°
2026-05-05 04:27 39.00080 -77.31688 4460 ft 223 kts 12°
2026-05-05 04:27 39.01339 -77.30605 4206 ft 232 kts 50°
2026-05-05 04:27 39.01914 -77.28812 3969 ft 226 kts 88°
2026-05-05 04:27 39.01617 -77.26926 3744 ft 210 kts 120°
2026-05-05 04:28 39.00992 -77.25245 3504 ft 206 kts 125°
2026-05-05 04:28 39.00281 -77.23640 3267 ft 207 kts 128°
2026-05-05 04:28 38.99531 -77.22092 3028 ft 208 kts 128°
2026-05-05 04:28 38.98781 -77.20543 3052 ft 200 kts 128°
2026-05-05 04:29 38.98065 -77.19075 3027 ft 207 kts 128°
2026-05-05 04:29 38.97323 -77.17512 3009 ft 208 kts 127°
2026-05-05 04:29 38.96580 -77.15955 2891 ft 212 kts 128°
2026-05-05 04:29 38.95762 -77.14364 2448 ft 210 kts 138°
2026-05-05 04:30 38.94792 -77.13071 2164 ft 191 kts 150°
2026-05-05 04:30 38.93712 -77.12183 2024 ft 184 kts 158°
2026-05-05 04:30 38.92625 -77.11349 1828 ft 172 kts 160°
2026-05-05 04:30 38.91691 -77.10642 1593 ft 156 kts 155°
2026-05-05 04:31 38.90964 -77.09671 1337 ft 151 kts 135°
2026-05-05 04:31 38.90489 -77.08497 1161 ft 151 kts 115°
2026-05-05 04:31 38.90100 -77.07264 980 ft 146 kts 127°
2026-05-05 04:31 38.89568 -77.06441 777 ft 138 kts 140°
2026-05-05 04:32 38.89443 -77.06289 738 ft 137 kts 140°
2026-05-05 04:32 38.88883 -77.05635 656 ft 135 kts 141°
2026-05-05 04:33 38.88706 -77.05430 611 ft 135 kts 141°
2026-05-05 04:33 38.88230 -77.04845 492 ft 136 kts 137°
2026-05-05 04:33 38.87481 -77.04132 325 ft 134 kts 160°
2026-05-05 04:34 38.87341 -77.04070 304 ft 133 kts 165°
2026-05-05 04:34 38.87185 -77.04021 279 ft 133 kts 169°
2026-05-05 04:34 38.85968 -77.03857 33 ft 132 kts 176°
2026-05-05 04:35 38.85208 -77.03782 21 ft 71 kts 176°
2026-05-05 04:35 38.84990 -77.03760 21 ft 32 kts 176°
2026-05-05 04:35 38.84883 -77.03845 21 ft 10 kts 276°
2026-05-05 04:35 38.84892 -77.03871 21 ft 6 kts 307°
2026-05-05 04:36 38.84969 -77.03897 21 ft 14 kts 355°
2026-05-05 04:36 38.85001 -77.03901 21 ft 15 kts 355°
2026-05-05 04:36 38.85072 -77.03908 22 ft 17 kts 355°
2026-05-05 04:37 38.85205 -77.03921 22 ft 21 kts 356°
2026-05-05 04:37 38.85359 -77.03937 22 ft 24 kts 356°
2026-05-05 04:37 38.85466 -77.03947 22 ft 20 kts 355°
2026-05-05 04:37 38.85473 -77.03948 22 ft 20 kts 355°
2026-05-05 04:38 38.85496 -77.03950 22 ft 19 kts 356°
2026-05-05 04:38 38.85604 -77.03983 22 ft 16 kts 321°
2026-05-05 04:38 38.85640 -77.04019 22 ft 16 kts 323°
2026-05-05 04:39 38.85672 -77.04050 22 ft 17 kts 322°
2026-05-05 04:39 38.85737 -77.04136 23 ft 13 kts 276°
2026-05-05 04:39 38.85713 -77.04256 23 ft 15 kts 252°
2026-05-05 04:39 38.85693 -77.04333 22 ft 7 kts 244°
2026-05-05 04:40 38.85661 -77.04354 22 ft 6 kts 193°
2026-05-05 04:40 38.85644 -77.04358 22 ft 0 kts 192°